RH
16 16 16 16 16 17 17 19 20 23 27 30 32 32 34 34 36 38 39 40 40 40 40 39 38 38 37 37 37 38 38 39 39 39 38 38 38 37 36 36 34 32 28 23 21 19 17 15 14 13 13 12 12 11 11 10 10 10 10 11 11 12 12 12 13 14 15 15 17 18 19 19 19 20 20 20 19 17 17 16 17 17 17 18 18
18 17 17 17 17 16 17 18 20 23 27 30 33 33 33 34 36 38 40 41 42 42 41 40 40 38 37 38 38 38 39 39 40 39 38 38 39 39 38 37 36 33 30 25 23 22 20 17 15 14 13 13 13 13 13 12 11 11 11 12 12 13 13 13 14 15 16 17 18 19 20 21 21 22 21 20 18 17 17 17 17 17 17 18 18
24 22 21 20 20 20 19 19 20 22 25 29 33 34 34 34 35 38 40 41 42 43 42 42 41 40 39 40 40 39 39 40 40 39 38 39 40 40 39 38 37 34 31 28 26 24 22 19 17 15 14 14 14 14 14 13 12 12 12 12 13 13 13 14 15 15 17 18 20 21 22 23 23 22 21 19 18 18 18 18 18 19 19 20 20
32 29 26 25 24 24 23 22 21 23 26 29 33 35 35 35 35 37 39 40 41 42 42 42 42 42 41 42 44 44 43 45 46 44 41 41 42 42 41 39 38 35 32 30 28 26 24 22 20 17 16 15 14 13 13 12 12 11 12 13 13 14 14 15 16 17 19 21 22 23 24 25 24 23 22 21 20 20 20 20 21 22 22 22 22
37 34 32 31 28 27 27 27 26 26 27 28 32 36 37 36 36 36 36 38 40 41 42 43 43 42 41 42 44 45 46 47 49 47 45 44 44 43 42 41 39 36 33 31 29 27 26 25 23 20 18 17 15 14 13 12 12 12 13 14 14 15 16 17 18 19 21 23 24 26 26 27 26 25 24 24 23 23 23 23 24 25 25 25 25
39 38 36 35 33 31 29 29 30 31 31 29 31 36 39 39 38 38 37 37 38 41 43 45 44 43 42 41 41 42 42 42 43 43 43 43 44 44 44 42 41 38 35 33 31 29 28 27 26 24 22 19 17 16 15 14 14 14 15 16 17 17 18 19 21 22 23 25 26 27 28 27 27 27 26 26 26 26 25 26 27 27 27 28 27
39 38 37 36 36 36 34 32 32 33 35 36 35 36 39 41 41 40 39 38 39 42 45 46 46 46 45 44 43 42 41 41 42 43 44 45 46 47 46 44 42 41 38 35 34 32 30 30 30 29 26 24 21 19 18 17 16 16 17 18 19 19 20 21 22 23 24 26 27 28 29 29 28 28 28 27 27 27 27 27 29 29 30 30 30
39 38 37 36 37 37 38 37 36 35 36 38 40 40 39 41 42 42 42 41 42 44 46 47 47 47 47 48 47 46 44 44 44 45 48 49 49 49 49 46 45 45 42 38 36 34 33 32 32 32 30 28 25 23 20 19 18 18 19 20 20 21 22 22 23 24 25 26 28 29 30 31 31 30 30 29 28 27 28 28 29 31 32 32 31
39 38 37 37 37 37 38 39 39 39 39 39 42 44 43 43 43 43 44 44 44 45 46 47 48 49 49 49 50 50 49 48 47 48 51 52 51 52 53 51 49 49 47 43 39 36 34 34 34 34 33 31 29 26 23 21 20 20 20 21 22 22 23 24 25 26 27 28 29 31 32 33 33 32 32 31 29 28 28 29 30 31 32 32 32
40 38 37 37 37 37 38 38 39 41 41 42 42 45 47 47 46 46 46 47 48 48 47 48 49 50 50 51 51 52 52 52 51 51 52 52 52 53 54 53 52 50 49 46 41 38 36 36 35 35 35 34 32 29 26 24 22 22 22 22 23 24 25 25 25 26 27 28 30 31 33 34 34 34 33 32 31 30 30 30 31 32 32 32 32
45 42 39 38 38 38 38 38 39 40 41 42 43 45 47 49 50 49 48 49 50 51 51 51 51 51 52 53 53 53 54 55 54 53 52 52 53 53 52 52 51 50 49 47 43 40 38 36 36 36 36 36 34 32 30 26 24 23 23 23 24 25 26 25 26 27 28 29 31 32 34 35 35 35 35 34 32 31 31 32 33 34 34 34 34
48 47 45 42 41 40 39 39 38 39 39 41 43 45 46 48 50 50 51 51 51 52 53 55 56 55 55 56 56 56 56 56 56 55 55 54 54 54 53 52 52 51 50 49 46 43 40 38 37 36 36 36 36 35 33 29 26 24 23 23 24 25 26 26 26 27 29 30 31 33 34 35 37 38 38 36 33 32 32 33 34 35 36 36 36
46 48 47 45 44 43 42 40 40 39 39 39 40 43 46 47 48 50 51 52 52 53 53 56 58 59 60 60 60 60 60 60 59 58 58 55 54 55 54 53 54 54 52 50 49 49 45 40 38 38 37 36 36 36 35 32 29 26 24 24 24 25 26 26 26 28 29 31 32 33 34 36 38 39 39 36 34 33 34 36 37 37 37 37 37
47 50 50 47 44 44 44 43 41 40 40 40 40 41 44 47 49 50 51 52 52 53 54 55 58 60 62 63 65 66 65 65 65 65 64 60 57 56 55 55 55 54 53 52 54 55 51 45 41 39 38 37 36 36 35 34 31 28 26 25 24 26 27 27 28 29 31 32 33 34 34 35 37 38 38 37 35 34 35 36 37 39 39 39 38
52 54 54 51 47 45 45 44 43 43 43 44 44 45 46 47 49 51 52 52 52 53 54 56 58 59 61 63 65 68 69 69 69 69 69 67 64 62 59 58 56 54 54 56 59 60 58 53 47 42 40 39 37 36 35 34 32 30 27 26 25 27 29 29 29 30 32 33 34 34 35 36 37 38 38 37 35 35 36 37 38 40 41 41 41
54 55 55 53 51 49 49 47 46 45 46 48 47 48 49 49 50 51 52 54 54 54 56 57 58 59 60 60 62 64 66 68 68 67 68 68 66 64 62 60 59 57 56 58 61 63 62 60 55 48 43 40 39 37 36 34 33 31 29 27 27 28 30 31 30 32 33 34 35 36 36 37 38 39 39 36 36 36 37 39 40 41 42 43 42
54 58 60 59 56 54 54 53 52 50 48 49 49 47 47 47 49 51 52 53 55 56 58 59 59 59 59 59 59 59 60 62 64 64 64 64 63 62 61 60 60 59 59 59 61 62 63 63 60 56 50 43 40 39 37 35 33 32 30 28 28 29 31 32 32 33 34 36 36 37 38 38 39 40 38 36 36 37 38 39 40 41 42 43 43
55 58 63 66 63 60 60 59 59 57 54 52 52 51 50 48 48 50 52 52 53 54 55 56 57 58 59 60 60 58 56 56 59 61 61 61 62 62 62 61 60 61 61 61 62 62 63 62 61 59 55 47 42 40 38 37 35 33 32 30 29 30 32 33 33 35 36 37 38 38 39 40 41 41 39 38 37 38 39 40 40 41 42 42 43
58 57 60 66 67 66 66 65 65 63 61 58 57 56 56 56 56 55 54 54 54 53 52 52 53 54 57 60 61 62 61 58 58 60 61 62 63 65 67 67 67 66 64 64 64 64 63 63 60 58 55 50 45 42 40 39 37 35 34 33 32 33 34 35 36 37 39 40 40 41 42 43 44 43 41 40 40 40 41 41 42 43 43 44 44
61 60 60 63 64 65 67 69 70 69 67 65 63 61 60 60 60 60 59 58 58 57 55 53 52 51 54 57 60 62 64 64 64 65 65 65 65 66 68 70 71 71 69 68 67 67 67 66 65 62 56 51 47 44 42 41 40 38 37 36 35 35 37 38 39 41 43 44 44 44 44 46 47 47 44 44 45 45 44 44 44 44 45 46 47
59 59 59 59 59 59 61 64 66 67 67 65 64 64 64 64 62 60 60 61 62 62 60 58 55 54 54 56 59 61 63 64 64 66 67 68 68 69 69 70 71 71 72 72 72 71 71 70 69 67 62 56 51 48 46 46 45 44 41 40 39 39 41 42 43 45 47 48 49 49 49 50 51 51 50 49 50 50 48 47 47 47 47 48 49
52 54 54 53 53 53 54 56 59 61 63 64 62 61 61 64 66 65 64 64 65 66 66 65 63 62 61 60 61 63 64 65 65 66 68 69 70 70 71 71 71 70 72 73 74 74 75 74 73 70 66 61 55 52 50 50 50 49 47 46 44 44 46 48 48 49 51 52 53 54 55 55 56 57 56 55 55 54 52 51 50 49 50 51 52
45 48 50 51 51 50 49 48 50 51 55 60 62 62 60 60 62 65 67 67 68 69 72 73 73 72 71 69 68 67 68 69 69 69 68 69 72 73 74 74 73 73 72 72 72 74 75 76 76 74 71 66 59 54 53 53 53 52 51 49 47 48 50 52 53 54 56 57 57 58 59 60 60 60 59 59 60 60 58 55 53 53 53 53 55
44 48 52 53 51 49 46 45 44 43 43 45 49 54 59 61 61 62 63 63 65 67 71 74 77 78 78 77 76 74 73 73 74 75 74 73 72 74 76 77 77 77 76 74 75 75 75 76 77 77 76 73 66 59 55 54 55 55 53 51 49 50 52 55 56 57 59 60 60 61 62 64 65 63 62 63 64 65 63 60 58 56 55 56 58
46 51 52 50 48 45 43 43 43 41 41 40 40 42 47 53 58 61 61 59 58 60 64 69 73 76 79 81 82 82 80 78 77 78 79 80 78 76 76 78 80 80 79 78 78 79 80 80 79 80 80 78 74 67 60 57 56 57 56 54 52 51 53 56 58 60 61 61 62 63 65 67 68 67 65 64 66 68 68 66 63 60 58 58 60
46 48 46 42 39 37 36 38 40 40 40 39 38 36 36 39 46 53 57 58 55 53 55 59 64 68 72 75 79 82 85 85 84 82 82 83 84 83 82 81 81 81 81 81 81 82 84 84 84 84 84 82 79 74 67 62 59 59 58 57 55 54 55 57 59 61 62 62 63 65 67 69 70 69 68 67 69 72 73 72 69 66 62 61 62
45 44 40 37 35 33 34 37 38 38 36 34 32 31 32 34 36 40 45 50 52 52 51 51 54 58 64 68 71 75 80 83 86 87 86 86 87 88 88 85 83 81 81 82 83 83 85 88 89 88 86 84 83 79 74 68 64 62 62 61 59 58 59 61 62 63 64 65 66 68 69 71 72 72 71 70 73 76 77 77 75 71 66 64 64
47 45 41 39 38 37 39 42 40 36 34 33 32 30 30 32 33 33 35 37 39 44 48 51 51 53 56 61 66 70 74 77 80 84 87 88 90 92 93 91 88 84 83 85 86 87 88 87 86 86 86 87 88 86 82 76 71 68 66 66 65 65 65 66 67 67 67 68 69 70 71 73 74 75 74 74 75 78 80 80 80 76 70 67 67
51 47 45 44 43 43 46 46 43 39 37 36 35 34 32 31 32 33 32 31 31 32 37 43 48 51 53 55 59 64 69 72 74 77 80 84 87 91 94 96 95 92 89 89 90 92 91 86 83 84 87 88 90 90 89 86 82 77 74 72 72 72 72 72 72 72 71 71 71 72 74 77 79 80 79 78 79 81 82 83 83 80 74 71 71
56 53 50 50 48 48 49 49 45 43 42 41 40 38 36 34 32 32 32 31 31 32 33 35 38 42 47 50 53 58 63 68 72 74 76 79 82 86 90 94 96 96 95 93 93 93 92 89 89 91 90 89 89 90 91 92 91 88 85 82 81 80 80 80 78 77 75 74 75 77 81 83 85 85 84 82 83 84 85 86 86 81 75 73 74
64 61 58 56 55 54 53 51 48 46 45 45 44 43 41 38 36 35 33 32 32 34 36 37 35 36 39 42 45 49 54 60 66 71 75 78 82 84 87 90 93 95 96 96 96 94 93 93 96 97 95 94 92 92 92 94 95 94 94 93 92 91 90 89 86 84 81 80 81 85 88 90 89 88 87 86 86 87 88 89 87 81 77 77 77
71 70 67 64 63 62 59 56 54 51 49 48 47 46 45 43 41 39 38 37 37 38 38 38 37 37 38 39 40 42 44 48 54 61 68 75 81 84 86 87 89 91 94 95 97 97 96 96 98 99 99 98 97 96 96 96 97 97 97 97 97 97 96 94 92 89 87 86 87 90 92 93 93 91 89 89 88 89 91 91 88 82 81 82 82
78 75 72 70 69 68 67 64 61 58 55 54 52 51 49 48 47 46 45 43 42 43 42 40 39 39 40 41 42 42 42 44 48 54 61 67 73 78 83 84 84 86 88 90 93 95 96 97 98 99 99 100 100 99 99 99 99 99 99 99 99 98 96 94 93 91 89 88 89 92 94 95 94 93 91 90 91 93 94 92 88 86 87 87 86
81 79 78 77 76 74 72 70 68 66 64 62 60 58 56 54 53 51 50 48 46 44 43 43 42 44 45 45 45 45 46 47 49 53 58 63 66 70 75 78 80 81 82 83 84 87 90 93 97 99 99 99 100 100 100 100 100 100 100 99 98 96 95 94 92 90 89 89 91 93 94 95 94 94 93 93 95 96 95 91 88 88 89 89 88
80 80 80 79 79 77 76 74 74 72 71 69 68 65 62 60 59 58 55 52 49 46 46 46 46 48 50 51 50 50 51 51 52 53 56 60 64 67 69 71 73 75 76 76 77 78 80 84 90 96 99 99 100 100 100 100 100 99 98 97 96 95 93 92 91 90 91 91 93 94 95 95 96 96 96 97 97 96 93 90 90 90 90 89 87
77 78 77 78 78 78 77 78 78 77 76 74 73 70 67 65 65 63 60 55 51 48 48 50 52 54 56 58 57 57 57 57 56 55 54 54 58 63 66 68 68 70 71 72 73 72 73 75 81 90 95 97 99 100 99 98 98 97 96 95 94 93 92 91 91 91 92 94 95 97 98 98 99 98 97 96 95 93 92 91 91 91 90 89 87
75 77 78 80 81 82 83 84 83 81 81 80 77 75 72 70 69 66 62 57 53 52 53 55 58 60 62 63 63 62 61 60 58 56 55 54 53 56 60 64 66 66 67 69 70 71 71 71 75 84 91 93 95 97 98 96 96 97 98 97 95 94 92 92 93 94 95 96 98 98 98 97 95 94 93 92 91 91 92 92 92 92 91 89 86
75 78 80 81 83 85 87 88 87 86 85 84 83 80 77 75 73 69 63 59 57 57 58 61 63 66 67 67 67 66 65 63 60 58 57 56 55 55 56 59 63 64 64 65 68 71 73 73 75 81 89 92 92 93 95 95 96 98 100 99 98 97 95 93 94 95 95 96 96 95 94 93 91 90 90 90 91 92 92 92 92 92 91 88 86
78 82 83 84 85 86 87 88 88 87 87 87 86 85 83 80 77 72 66 63 62 62 65 69 72 74 75 73 71 69 68 67 65 63 61 60 60 60 60 61 61 62 62 62 63 68 73 77 80 85 90 92 92 91 92 93 94 97 99 99 99 99 98 96 96 96 96 96 96 95 93 92 91 91 91 91 92 91 90 91 92 92 90 87 85
77 81 83 84 84 83 83 83 84 86 88 88 87 87 86 84 80 74 69 66 67 70 74 78 81 81 82 81 78 77 76 75 73 70 69 68 66 66 67 67 66 66 64 63 64 67 73 79 86 91 93 92 91 91 91 91 91 93 96 97 97 98 99 98 98 99 99 100 100 99 97 94 92 92 92 92 93 93 92 91 90 90 88 85 82
78 79 80 79 78 78 79 80 85 90 92 90 89 89 88 86 80 74 70 70 73 77 80 83 84 84 84 83 82 81 81 80 78 75 73 73 73 73 73 73 73 72 71 69 68 69 71 75 81 88 92 92 91 90 90 91 91 92 93 93 92 95 98 98 98 99 99 100 100 100 100 98 95 94 93 92 92 94 95 94 90 86 84 81 77
79 79 79 76 74 75 81 86 90 94 93 93 93 91 89 86 79 73 74 76 79 81 83 84 85 85 84 83 82 82 82 82 80 78 77 77 78 79 78 77 77 78 77 76 74 72 72 72 73 77 81 84 86 86 88 90 93 95 95 93 92 94 97 97 97 98 98 99 99 98 98 98 97 96 94 93 92 92 96 97 93 89 85 81 77
76 77 78 76 74 78 86 92 95 96 95 96 96 93 90 85 78 76 79 82 83 85 86 87 88 88 87 86 85 85 87 87 85 84 83 83 83 82 81 79 78 78 79 80 79 77 75 73 72 73 74 76 79 82 85 89 92 94 95 94 93 94 95 97 97 97 97 98 97 97 97 97 97 95 95 95 96 97 98 97 95 93 90 87 84
73 76 79 79 80 86 92 95 97 98 99 100 98 94 90 84 80 81 85 87 88 90 90 91 92 91 90 90 90 91 93 94 94 94 93 93 93 91 88 86 84 82 81 81 81 81 79 77 76 76 77 78 80 82 85 88 91 93 94 96 95 95 96 97 97 98 98 97 97 97 97 96 95 93 92 92 94 97 99 97 94 92 90 89 88
74 77 81 84 89 94 96 97 99 100 101 101 100 96 90 86 85 88 90 91 93 94 94 95 94 92 92 92 93 96 99 101 101 100 100 100 101 100 97 96 94 91 87 84 83 82 82 81 81 80 81 81 82 84 87 91 94 97 98 99 100 99 98 97 96 96 96 95 94 93 92 91 91 91 91 91 92 94 96 96 91 86 85 85 84
79 82 88 93 97 99 99 101 103 103 102 100 100 97 91 89 91 94 95 96 97 97 97 97 96 94 94 94 94 97 100 103 103 102 101 101 102 102 101 99 99 97 94 90 86 83 83 83 83 83 82 83 83 84 87 92 97 100 100 100 100 101 101 99 96 94 91 90 90 89 87 86 87 88 89 91 91 90 90 88 86 84 85 83 80
88 92 95 98 100 99 101 103 103 102 101 101 100 98 95 93 96 98 99 100 100 99 99 98 98 97 97 95 95 97 100 102 104 103 101 101 101 102 101 100 99 99 98 96 93 89 86 85 84 84 84 84 86 87 88 91 95 98 99 99 99 100 100 98 96 93 91 90 92 92 91 89 88 87 87 86 84 83 82 80 80 81 83 82 80
96 99 100 101 100 99 101 104 103 101 101 101 101 100 98 97 99 100 101 101 101 101 100 98 97 97 98 97 97 98 99 102 102 102 101 100 100 101 101 100 99 98 98 98 98 96 93 90 87 86 86 87 88 89 90 91 92 94 96 97 97 97 97 96 95 93 91 91 93 93 93 93 92 91 89 87 85 84 84 83 81 80 79 78 78
100 101 101 100 100 100 102 103 102 101 100 101 101 101 100 100 100 101 101 101 101 100 98 97 97 97 97 98 98 98 99 101 101 101 101 100 100 101 101 101 100 99 99 99 99 99 98 95 92 90 88 88 88 89 89 88 88 89 91 93 94 95 95 95 93 92 90 90 92 94 96 97 97 95 93 92 90 90 89 88 86 84 82 81 81
102 101 101 100 100 101 102 102 101 101 101 101 102 101 101 101 101 101 101 101 99 97 95 95 96 96 97 98 98 97 98 99 100 100 99 99 100 100 101 101 101 101 101 100 100 100 99 98 97 95 92 91 90 90 87 86 86 87 88 88 89 89 90 90 90 90 89 88 89 91 93 94 94 92 91 90 89 88 87 86 85 84 84 85 87
102 101 100 100 101 102 102 101 101 101 101 102 102 102 101 101 101 101 101 99 96 94 94 94 94 95 96 97 97 98 97 97 98 99 99 98 98 99 100 100 101 101 101 101 101 100 99 99 99 98 97 95 94 93 91 89 89 90 90 90 90 90 89 88 87 86 85 85 85 84 84 85 84 83 83 83 83 83 82 82 82 82 84 85 85